Volver al catálogo

STARLINK-36654

ActivoComunicacionesVLEO
NORAD 67838·PAYLOAD·🇺🇸 United States

Lanzado Feb 16, 2026 desde Vandenberg Space Force Base

Loading…

Próximos Pases (próximas 24 horas)

TLE

ActualizadoSource: CelesTrak SupGP

Época: Sep 15, 2026, 03:49 UTC

1 67838C 26033T   26258.15951389 -.00018532  00000+0 -67102-3 0  2587
2 67838  43.0027 277.1634 0001704 273.4358 296.7219 15.27597747    15

Sigue STARLINK-36654 en tiempo real con AllMySat

Download on the App Store